Weather in Mikhaylovka

Russia / Sakhalin District     50°49′52″N   142°10′38″E
temp.,
°C
wind,
m/s
gust,
m/s
humid.,
%
clouds,
%
prec.,
mm/h
press.,
hPa
HPBL,
m
13 april, tue
tue1323:00+1s41497100 7.4 1011675
02:00+1s31297100 0.1 1010666
05:00+1sse31095100 0.2 1008443
08:00+1sse2792100 0.1 1007355
11:00+1se2698100 0.8 1005444
14:00+4sse31090100 0.5 1002667
17:00+3sse31198100 2.6 9991010
20:00+2se2699100 7.3 997476
14 april, wed
wed1423:000ese23100100 12.5 993168
02:000e1299100 1.1 989243
05:00−4w469799 4.1 990596
08:00−6w5895100 2.1 992706
11:00−6w6889100 3.6 994912
14:00−4wsw61083100 0.8 9951383
17:00−5w51388100 1.5 9971510
20:00−6w51094100 1.1 999973
15 april, thu
thu1523:00−7w1596100 2.8 1002466
02:00−9wnw4889100 1.4 1004790
05:00−7w597999 1.9 1005995
08:00−7sw2685100 0.1 1007603
11:00−3sw4763100 0.1 10081073
14:00−2sw577041 0.0 10101273
17:00−1sw456660 0.0 10121019
20:00−4sw238663 0.0 101587
16 april, fri
fri1623:00−5ssw369651 0.0 1018126
02:00−5s37905 0.0 1019137
05:00−6sse25895 0.0 102180
08:00−4se24845 0.0 1021134
11:00+1s24644 0.0 1021921
14:00+4ssw365461 0.0 10201111
17:00+5ssw365896 0.0 10181032
20:00+1ese2288100 0.0 101935
17 april, sat
sat1723:00−2ese249292 0.0 101989
02:00−2se3793100 0.0 1018199
05:00−2ese3596100 0.0 1016166
08:00−1ese349369 0.0 1015166
11:00+3ese3579100 0.0 1013348
14:00+2se2591100 0.1 1012258
17:00+5sse3108786 0.1 1011522
20:00+2ese2397100 0.0 101175